STARLINK-38080

Last updated on Sun Aug 09 2026 00:02:04 GMT+0000 (Coordinated Universal Time)

1 69989U 26159Q 26220.53770495 .00129489 00000+0 85511-3 0 9991 2 69989 97.2828 60.5376 0000997 93.4459 266.6920 15.75212141 5707
UTC large
Height (km)
Speed (km/s)
/
Latitude / Longitude
Inclination (degrees)
Orbital Period (minutes)
Azimuth
Elevation
Range (km)
Doppler Factor

Next 0 passes for location: London (51.5072 / 0.1276)

No passes found over London.
STARLINK-38080